"read_dt","SO2 (ppb)","flags","PMT voltage (V)","lamp voltage (V)","lamp intensity (Hz)","internal temp (C)","react chamber temp (C)","sample flow (l/min)","pres (mmHg)","SO2 bkg (ppb)","SO2 coefficient"
2014-02-07 00:00:00,4197E-2,5C000490,-0724,1376,5530,026.6,045.3,0.119,770.7,01.15,0.508
2014-02-07 00:01:00,4204E-2,5C000490,-0724,1376,5587,026.6,045.3,0.119,770.7,01.15,0.508
2014-02-07 00:02:00,4208E-2,5C000490,-0724,1376,5520,026.6,045.3,0.119,770.7,01.15,0.508
2014-02-07 00:03:00,4233E-2,5C000490,-0724,1376,5558,026.6,045.3,0.119,770.7,01.15,0.508
2014-02-07 00:04:00,4191E-2,5C000490,-0724,1376,5460,026.6,045.3,0.119,770.7,01.15,0.508
2014-02-07 00:05:00,4212E-2,5C000490,-0724,1376,5506,026.6,045.3,0.119,770.6,01.15,0.508
2014-02-07 00:06:00,4176E-2,5C000490,-0724,1376,5437,026.6,045.3,0.119,770.6,01.15,0.508
2014-02-07 00:07:00,4297E-2,5C000490,-0724,1376,5459,026.6,045.2,0.119,770.6,01.15,0.508
2014-02-07 00:08:00,4211E-2,5C000490,-0724,1376,5507,026.6,045.3,0.119,770.6,01.15,0.508
2014-02-07 00:09:00,4253E-2,5C000490,-0724,1376,5532,026.6,045.3,0.119,770.6,01.15,0.508
2014-02-07 00:10:00,4255E-2,5C000490,-0724,1376,5474,026.6,045.3,0.119,770.6,01.15,0.508
2014-02-07 00:11:00,4227E-2,5C000490,-0724,1376,5529,026.6,045.2,0.119,770.6,01.15,0.508
2014-02-07 00:12:00,4216E-2,5C000490,-0724,1376,5488,026.6,045.2,0.119,770.6,01.15,0.508
2014-02-07 00:13:00,4213E-2,5C000490,-0724,1376,5501,026.6,045.3,0.119,770.6,01.15,0.508
2014-02-07 00:14:00,4219E-2,5C000490,-0724,1376,5519,026.6,045.3,0.119,770.6,01.15,0.508
2014-02-07 00:15:00,4279E-2,5C000490,-0724,1376,5511,026.6,045.2,0.119,770.6,01.15,0.508
2014-02-07 00:16:00,4217E-2,5C000490,-0724,1376,5500,026.6,045.3,0.119,770.6,01.15,0.508
2014-02-07 00:17:00,4227E-2,5C000490,-0724,1376,5425,026.6,045.3,0.119,770.6,01.15,0.508
2014-02-07 00:18:00,4204E-2,5C000490,-0724,1376,5464,026.5,045.3,0.119,770.6,01.15,0.508
2014-02-07 00:19:00,4209E-2,5C000490,-0724,1376,5511,026.5,045.3,0.119,770.7,01.15,0.508
2014-02-07 00:20:00,4163E-2,5C000490,-0724,1376,5493,026.5,045.3,0.120,770.8,01.15,0.508
2014-02-07 00:21:00,4150E-2,5C000490,-0724,1376,5436,026.6,045.3,0.119,770.8,01.15,0.508
2014-02-07 00:22:00,4253E-2,5C000490,-0724,1376,5487,026.6,045.3,0.119,770.8,01.15,0.508
2014-02-07 00:23:00,4270E-2,5C000490,-0724,1376,5440,026.5,045.3,0.120,770.9,01.15,0.508
2014-02-07 00:24:00,4175E-2,5C000490,-0724,1376,5478,026.5,045.3,0.120,770.9,01.15,0.508
2014-02-07 00:25:00,4258E-2,5C000490,-0724,1376,5412,026.5,045.3,0.120,770.8,01.15,0.508
2014-02-07 00:26:00,4221E-2,5C000490,-0724,1376,5417,026.5,045.3,0.000,770.8,01.15,0.508
2014-02-07 00:27:00,4208E-2,5C000490,-0724,1376,5385,026.5,045.3,0.120,770.9,01.15,0.508
2014-02-07 00:28:00,4254E-2,5C000490,-0724,1376,5428,026.6,045.3,0.120,770.9,01.15,0.508
2014-02-07 00:29:00,4241E-2,5C000490,-0724,1376,5402,026.6,045.3,0.120,771.0,01.15,0.508
2014-02-07 00:30:00,4280E-2,5C000490,-0724,1376,5404,026.5,045.3,0.120,771.0,01.15,0.508
2014-02-07 00:31:00,4278E-2,5C000490,-0724,1376,5417,026.6,045.2,0.120,771.1,01.15,0.508
2014-02-07 00:32:00,4284E-2,5C000490,-0724,1376,5380,026.6,045.3,0.120,771.0,01.15,0.508
2014-02-07 00:33:00,4270E-2,5C000490,-0724,1376,5372,026.6,045.3,0.120,770.9,01.15,0.508
2014-02-07 00:34:00,4173E-2,5C000490,-0724,1376,5355,026.6,045.3,0.120,770.9,01.15,0.508
2014-02-07 00:35:00,4194E-2,5C000490,-0724,1376,5406,026.5,045.3,0.119,770.9,01.15,0.508
2014-02-07 00:36:00,4200E-2,5C000490,-0724,1376,5372,026.3,045.2,0.120,770.9,01.15,0.508
2014-02-07 00:37:00,4259E-2,5C000490,-0724,1376,5450,026.1,045.2,0.120,771.0,01.15,0.508
2014-02-07 00:38:00,4266E-2,5C000490,-0724,1376,5404,026.0,045.2,0.120,771.1,01.15,0.508
2014-02-07 00:39:00,4237E-2,5C000490,-0724,1376,5408,025.9,045.2,0.120,771.1,01.15,0.508
2014-02-07 00:40:00,4265E-2,5C000490,-0724,1376,5376,025.8,045.2,0.121,771.2,01.15,0.508
2014-02-07 00:41:00,4269E-2,5C000490,-0724,1376,5440,025.7,045.2,0.121,771.3,01.15,0.508
2014-02-07 00:42:00,4215E-2,5C000490,-0724,1376,5389,025.6,045.2,0.121,771.2,01.15,0.508
2014-02-07 00:43:00,4273E-2,5C000490,-0724,1375,5417,025.6,045.2,0.122,771.2,01.15,0.508
2014-02-07 00:44:00,4252E-2,5C000490,-0724,1375,5437,025.5,045.2,0.122,771.2,01.15,0.508
2014-02-07 00:45:00,4226E-2,5C000490,-0724,1375,5355,025.4,045.2,0.123,771.2,01.15,0.508
2014-02-07 00:46:00,4201E-2,5C000490,-0724,1375,5326,025.4,045.2,0.123,771.2,01.15,0.508
2014-02-07 00:47:00,4243E-2,5C000490,-0724,1375,5412,025.4,045.2,0.123,771.3,01.15,0.508
2014-02-07 00:48:00,1028E-2,5C000450,-0724,0702,1942,025.4,045.2,0.123,771.3,01.15,0.508
2014-02-07 00:49:00,3044E-2,5C000490,-0724,1217,5292,025.3,045.2,0.124,771.4,01.15,0.508
2014-02-07 00:50:00,4212E-2,5C000490,-0724,1338,5350,025.5,045.2,0.124,771.4,01.15,0.508
2014-02-07 00:51:00,4271E-2,5C000490,-0724,1367,5370,025.6,045.2,0.124,771.4,01.15,0.508
2014-02-07 00:52:00,4254E-2,5C000490,-0724,1374,5346,025.7,045.2,0.124,771.4,01.15,0.508
2014-02-07 00:53:00,4195E-2,5C000490,-0724,1375,5352,025.7,045.2,0.124,771.3,01.15,0.508
2014-02-07 00:54:00,4250E-2,5C000490,-0724,1376,5308,025.7,045.2,0.124,771.3,01.15,0.508
2014-02-07 00:55:00,4240E-2,5C000490,-0724,1376,5283,025.8,045.2,0.124,771.3,01.15,0.508
2014-02-07 00:56:00,4225E-2,5C000490,-0724,1376,5333,025.8,045.2,0.124,771.3,01.15,0.508
2014-02-07 00:57:00,4216E-2,5C000490,-0724,1376,5338,025.9,045.2,0.123,771.4,01.15,0.508
2014-02-07 00:58:00,4203E-2,5C000490,-0724,1376,5344,025.9,045.2,0.123,771.4,01.15,0.508
2014-02-07 00:59:00,4230E-2,5C000490,-0724,1376,5287,025.9,045.2,0.123,771.4,01.15,0.508
2014-02-07 01:00:00,4207E-2,5C000490,-0724,1376,5244,025.9,045.2,0.123,771.4,01.15,0.508
2014-02-07 01:01:00,4284E-2,5C000490,-0724,1374,6659,026.0,045.2,0.123,771.4,01.15,0.508
2014-02-07 01:02:00,4279E-2,5C000490,-0724,1373,6635,025.9,045.2,0.123,771.4,01.15,0.508
2014-02-07 01:03:00,4358E-2,5C000490,-0724,1374,6628,025.8,045.2,0.123,771.4,01.15,0.508
2014-02-07 01:04:00,4274E-2,5C000490,-0724,1374,6604,025.8,045.2,0.123,771.4,01.15,0.508
2014-02-07 01:05:00,4311E-2,5C000490,-0724,1375,6481,025.8,045.2,0.122,771.4,01.15,0.508
2014-02-07 01:06:00,4258E-2,5C000490,-0724,1375,6531,025.7,045.2,0.123,771.5,01.15,0.508
2014-02-07 01:07:00,4281E-2,5C000490,-0724,1375,6428,025.7,045.2,0.123,771.5,01.15,0.508
2014-02-07 01:08:00,4312E-2,5C000490,-0724,1375,6488,025.7,045.2,0.123,771.6,01.15,0.508
2014-02-07 01:09:00,4282E-2,5C000490,-0724,1375,6527,025.6,045.2,0.123,771.6,01.15,0.508
2014-02-07 01:10:00,4223E-2,5C000490,-0724,1375,6418,025.6,045.2,0.123,771.6,01.15,0.508
2014-02-07 01:11:00,4242E-2,5C000490,-0724,1375,6372,025.5,045.2,0.123,771.6,01.15,0.508
2014-02-07 01:12:00,4249E-2,5C000490,-0724,1375,6419,025.5,045.2,0.123,771.7,01.15,0.508
2014-02-07 01:13:00,4279E-2,5C000490,-0724,1375,6307,025.5,045.2,0.123,771.7,01.15,0.508
2014-02-07 01:14:00,4366E-2,5C000490,-0724,1376,6332,025.5,045.2,0.123,771.8,01.15,0.508
2014-02-07 01:15:00,4324E-2,5C000490,-0724,1376,6336,025.5,045.2,0.123,771.8,01.15,0.508
2014-02-07 01:16:00,4340E-2,5C000490,-0724,1376,6256,025.6,045.2,0.123,771.8,01.15,0.508
2014-02-07 01:17:00,4293E-2,5C000490,-0724,1376,6243,025.7,045.2,0.123,771.7,01.15,0.508
2014-02-07 01:18:00,4228E-2,5C000490,-0724,1376,6226,025.8,045.2,0.123,771.8,01.15,0.508
2014-02-07 01:19:00,4289E-2,5C000490,-0724,1376,6161,026.0,045.2,0.123,771.7,01.15,0.508
2014-02-07 01:20:00,4287E-2,5C000490,-0724,1376,6164,026.1,045.2,0.123,771.8,01.15,0.508
2014-02-07 01:21:00,4276E-2,5C000490,-0724,1376,6202,026.2,045.2,0.123,771.8,01.15,0.508
2014-02-07 01:22:00,4294E-2,5C000490,-0724,1376,6120,026.3,045.3,0.122,771.8,01.15,0.508
2014-02-07 01:23:00,4318E-2,5C000490,-0724,1376,6106,026.4,045.2,0.122,771.8,01.15,0.508
2014-02-07 01:24:00,4293E-2,5C000490,-0724,1376,6070,026.5,045.2,0.122,771.8,01.15,0.508
2014-02-07 01:25:00,4275E-2,5C000490,-0724,1376,6114,026.6,045.3,0.121,771.8,01.15,0.508
2014-02-07 01:26:00,4308E-2,5C000490,-0724,1376,6033,026.7,045.3,0.121,771.7,01.15,0.508
2014-02-07 01:27:00,4277E-2,5C000490,-0724,1376,6006,026.8,045.3,0.121,771.7,01.15,0.508
2014-02-07 01:28:00,4285E-2,5C000490,-0724,1376,6065,026.9,045.3,0.120,771.7,01.15,0.508
2014-02-07 01:29:00,4255E-2,5C000490,-0724,1376,6053,027.0,045.3,0.120,771.7,01.15,0.508
2014-02-07 01:30:00,4224E-2,5C000490,-0724,1376,6067,027.1,045.3,0.120,771.8,01.15,0.508
2014-02-07 01:31:00,4305E-2,5C000490,-0724,1376,5993,027.2,045.3,0.119,771.8,01.15,0.508
2014-02-07 01:32:00,4248E-2,5C000490,-0724,1376,5974,027.3,045.3,0.119,771.8,01.15,0.508
2014-02-07 01:33:00,4225E-2,5C000490,-0724,1376,5977,027.4,045.3,0.119,771.8,01.15,0.508
2014-02-07 01:34:00,4216E-2,5C000490,-0724,1376,6014,027.6,045.3,0.118,771.9,01.15,0.508
2014-02-07 01:35:00,4167E-2,5C000490,-0724,1376,5953,027.6,045.3,0.118,771.9,01.15,0.508
2014-02-07 01:36:00,4293E-2,5C000490,-0724,1376,5917,027.7,045.3,0.117,771.9,01.15,0.508
2014-02-07 01:37:00,4226E-2,5C000490,-0724,1376,5948,027.7,045.3,0.117,771.9,01.15,0.508
2014-02-07 01:38:00,4237E-2,5C000490,-0724,1376,5992,027.7,045.3,0.117,771.9,01.15,0.508
2014-02-07 01:39:00,4249E-2,5C000490,-0724,1376,5972,027.7,045.3,0.116,772.0,01.15,0.508
2014-02-07 01:40:00,4187E-2,5C000490,-0724,1376,6054,027.7,045.3,0.116,772.0,01.15,0.508
2014-02-07 01:41:00,4184E-2,5C000490,-0724,1376,5946,027.8,045.3,0.116,772.1,01.15,0.508
2014-02-07 01:42:00,4222E-2,5C000490,-0724,1376,5892,027.8,045.3,0.116,772.1,01.15,0.508
2014-02-07 01:43:00,4209E-2,5C000490,-0724,1376,5938,027.8,045.3,0.115,772.1,01.15,0.508
2014-02-07 01:44:00,4228E-2,5C000490,-0724,1376,5912,027.8,045.3,0.115,772.1,01.15,0.508
2014-02-07 01:45:00,4178E-2,5C000490,-0724,1376,5911,027.9,045.3,0.115,772.2,01.15,0.508
2014-02-07 01:46:00,4150E-2,5C000490,-0724,1376,5893,027.9,045.3,0.115,772.2,01.15,0.508
2014-02-07 01:47:00,4219E-2,5C000490,-0724,1376,5889,028.0,045.3,0.115,772.2,01.15,0.508
2014-02-07 01:48:00,4208E-2,5C000490,-0724,1376,5878,028.0,045.3,0.115,772.2,01.15,0.508
2014-02-07 01:49:00,4179E-2,5C000490,-0724,1376,5915,028.0,045.3,0.115,772.3,01.15,0.508
2014-02-07 01:50:00,4186E-2,5C000490,-0724,1376,5861,028.0,045.3,0.114,772.3,01.15,0.508
2014-02-07 01:51:00,4138E-2,5C000490,-0724,1376,5885,028.0,045.3,0.114,772.2,01.15,0.508
2014-02-07 01:52:00,4132E-2,5C000490,-0724,1376,5824,028.0,045.3,0.114,772.2,01.15,0.508
2014-02-07 01:53:00,4155E-2,5C000490,-0724,1376,5795,028.1,045.3,0.114,772.1,01.15,0.508
2014-02-07 01:54:00,4204E-2,5C000490,-0724,1376,5819,028.1,045.3,0.114,772.1,01.15,0.508
2014-02-07 01:55:00,4162E-2,5C000490,-0724,1376,5893,028.1,045.3,0.114,772.1,01.15,0.508
2014-02-07 01:56:00,4136E-2,5C000490,-0724,1376,5808,028.1,045.3,0.114,772.0,01.15,0.508
2014-02-07 01:57:00,4110E-2,5C000490,-0724,1376,5857,028.1,045.3,0.114,772.0,01.15,0.508
2014-02-07 01:58:00,4162E-2,5C000490,-0724,1376,5826,028.1,045.3,0.114,772.0,01.15,0.508
2014-02-07 01:59:00,4176E-2,5C000490,-0724,1376,5743,028.1,045.3,0.114,772.0,01.15,0.508
2014-02-07 02:00:00,4116E-2,5C000490,-0724,1376,5749,028.1,045.3,0.114,772.0,01.15,0.508
2014-02-07 02:01:00,4146E-2,5C000490,-0724,1376,5811,028.1,045.3,0.113,772.0,01.15,0.508
2014-02-07 02:02:00,4124E-2,5C000490,-0724,1376,5834,028.2,045.3,0.113,772.0,01.15,0.508
2014-02-07 02:03:00,4080E-2,5C000490,-0724,1376,5845,028.1,045.3,0.113,772.0,01.15,0.508
2014-02-07 02:04:00,4166E-2,5C000490,-0724,1376,5848,028.2,045.3,0.113,772.0,01.15,0.508
2014-02-07 02:05:00,4155E-2,5C000490,-0724,1376,5883,028.2,045.3,0.113,771.9,01.15,0.508
2014-02-07 02:06:00,4084E-2,5C000490,-0724,1376,5868,028.2,045.3,0.113,771.9,01.15,0.508
2014-02-07 02:07:00,4150E-2,5C000490,-0724,1376,5809,028.1,045.3,0.113,772.0,01.15,0.508
2014-02-07 02:08:00,4147E-2,5C000490,-0724,1376,5825,028.2,045.3,0.113,772.0,01.15,0.508
2014-02-07 02:09:00,4090E-2,5C000490,-0724,1376,5780,028.2,045.3,0.113,772.0,01.15,0.508
2014-02-07 02:10:00,4098E-2,5C000490,-0724,1376,5800,028.2,045.3,0.113,772.0,01.15,0.508
2014-02-07 02:11:00,4153E-2,5C000490,-0724,1376,5765,028.2,045.3,0.113,772.0,01.15,0.508
2014-02-07 02:12:00,4115E-2,5C000490,-0724,1376,5710,028.2,045.3,0.113,772.1,01.15,0.508
2014-02-07 02:13:00,4131E-2,5C000490,-0724,1376,5767,028.1,045.3,0.113,772.0,01.15,0.508
2014-02-07 02:14:00,4133E-2,5C000490,-0724,1376,5585,028.1,045.3,0.113,772.0,01.15,0.508
2014-02-07 02:15:00,4102E-2,5C000490,-0724,1376,5794,028.1,045.3,0.113,771.9,01.15,0.508
2014-02-07 02:16:00,4137E-2,5C000490,-0724,1376,5733,028.1,045.3,0.113,771.9,01.15,0.508
2014-02-07 02:17:00,4150E-2,5C000490,-0724,1376,5712,028.1,045.3,0.113,771.9,01.15,0.508
2014-02-07 02:18:00,4113E-2,5C000490,-0724,1376,5740,028.1,045.3,0.113,771.9,01.15,0.508
2014-02-07 02:19:00,4104E-2,5C000490,-0724,1376,5733,028.1,045.3,0.113,771.9,01.15,0.508
2014-02-07 02:20:00,4099E-2,5C000490,-0724,1376,5740,028.1,045.3,0.113,771.9,01.15,0.508
2014-02-07 02:21:00,4082E-2,5C000490,-0724,1376,5676,028.1,045.3,0.113,772.0,01.15,0.508
2014-02-07 02:22:00,4168E-2,5C000490,-0724,1376,5650,028.1,045.3,0.113,772.0,01.15,0.508
2014-02-07 02:23:00,4120E-2,5C000490,-0724,1376,5623,028.1,045.3,0.113,772.0,01.15,0.508
2014-02-07 02:24:00,4091E-2,5C000490,-0724,1376,5657,028.1,045.3,0.113,772.0,01.15,0.508
2014-02-07 02:25:00,4155E-2,5C000490,-0724,1376,5732,028.0,045.3,0.113,772.0,01.15,0.508
2014-02-07 02:26:00,4130E-2,5C000490,-0724,1376,5710,028.0,045.3,0.113,772.0,01.15,0.508
2014-02-07 02:27:00,4095E-2,5C000490,-0724,1376,5644,028.0,045.3,0.113,772.0,01.15,0.508
2014-02-07 02:28:00,4110E-2,5C000490,-0724,1376,5642,028.0,045.3,0.113,772.1,01.15,0.508
2014-02-07 02:29:00,4115E-2,5C000490,-0724,1376,5694,028.0,045.3,0.113,772.0,01.15,0.508
2014-02-07 02:30:00,4118E-2,5C000490,-0724,1376,5641,028.0,045.3,0.113,772.0,01.15,0.508
2014-02-07 02:31:00,4125E-2,5C000490,-0724,1376,5629,028.0,045.3,0.113,772.0,01.15,0.508
2014-02-07 02:32:00,4108E-2,5C000490,-0724,1376,5633,028.0,045.3,0.113,772.0,01.15,0.508
2014-02-07 02:33:00,4074E-2,5C000490,-0724,1376,5661,028.0,045.3,0.113,771.9,01.15,0.508
2014-02-07 02:34:00,4069E-2,5C000490,-0724,1376,5685,028.0,045.3,0.113,771.9,01.15,0.508
2014-02-07 02:35:00,4070E-2,5C000490,-0724,1376,5658,028.0,045.3,0.114,771.8,01.15,0.508
2014-02-07 02:36:00,4149E-2,5C000490,-0724,1376,5723,028.0,045.3,0.113,771.8,01.15,0.508
2014-02-07 02:37:00,4102E-2,5C000490,-0724,1376,5570,027.9,045.3,0.114,771.8,01.15,0.508
2014-02-07 02:38:00,4149E-2,5C000490,-0724,1376,5659,027.9,045.3,0.114,771.9,01.15,0.508
2014-02-07 02:39:00,4136E-2,5C000490,-0724,1376,5622,027.9,045.3,0.114,771.9,01.15,0.508
2014-02-07 02:40:00,4069E-2,5C000490,-0724,1376,5652,027.9,045.3,0.114,771.8,01.15,0.508
2014-02-07 02:41:00,4093E-2,5C000490,-0724,1376,5647,027.9,045.3,0.114,771.8,01.15,0.508
2014-02-07 02:42:00,4123E-2,5C000490,-0724,1376,5650,027.9,045.3,0.114,771.8,01.15,0.508
2014-02-07 02:43:00,4109E-2,5C000490,-0724,1376,5638,027.9,045.3,0.114,771.7,01.15,0.508
2014-02-07 02:44:00,4178E-2,5C000490,-0724,1376,5675,027.9,045.3,0.114,771.7,01.15,0.508
2014-02-07 02:45:00,4102E-2,5C000490,-0724,1376,5590,027.9,045.3,0.114,771.7,01.15,0.508
2014-02-07 02:46:00,4107E-2,5C000490,-0724,1376,5606,027.9,045.3,0.114,771.8,01.15,0.508
2014-02-07 02:47:00,4073E-2,5C000490,-0724,1376,5651,027.9,045.3,0.114,771.7,01.15,0.508
2014-02-07 02:48:00,4112E-2,5C000490,-0724,1376,5647,027.9,045.3,0.114,771.7,01.15,0.508
2014-02-07 02:49:00,4112E-2,5C000490,-0724,1376,5590,027.9,045.3,0.114,771.7,01.15,0.508
2014-02-07 02:50:00,4071E-2,5C000490,-0724,1376,5611,027.9,045.3,0.114,771.7,01.15,0.508
2014-02-07 02:51:00,4076E-2,5C000490,-0724,1376,5579,027.9,045.3,0.114,771.7,01.15,0.508
2014-02-07 02:52:00,4102E-2,5C000490,-0724,1376,5556,027.8,045.3,0.114,771.7,01.15,0.508
2014-02-07 02:53:00,4114E-2,5C000490,-0724,1376,5496,027.8,045.3,0.114,771.8,01.15,0.508
2014-02-07 02:54:00,4076E-2,5C000490,-0724,1376,5591,027.8,045.3,0.114,771.7,01.15,0.508
2014-02-07 02:55:00,4112E-2,5C000490,-0724,1376,5565,027.8,045.3,0.114,771.7,01.15,0.508
2014-02-07 02:56:00,4087E-2,5C000490,-0724,1376,5550,027.8,045.3,0.114,771.8,01.15,0.508
2014-02-07 02:57:00,4150E-2,5C000490,-0724,1376,5580,027.8,045.3,0.114,771.8,01.15,0.508
2014-02-07 02:58:00,4080E-2,5C000490,-0724,1376,5579,027.8,045.3,0.114,771.8,01.15,0.508
2014-02-07 02:59:00,4068E-2,5C000490,-0724,1376,5648,027.8,045.3,0.114,771.8,01.15,0.508
2014-02-07 03:00:00,4090E-2,5C000490,-0724,1376,5590,027.8,045.3,0.114,771.8,01.15,0.508
2014-02-07 03:01:00,4117E-2,5C000490,-0724,1376,5567,027.8,045.3,0.114,771.8,01.15,0.508
2014-02-07 03:02:00,4107E-2,5C000490,-0724,1376,5623,027.8,045.3,0.114,771.8,01.15,0.508
2014-02-07 03:03:00,4091E-2,5C000490,-0724,1376,5643,027.8,045.3,0.114,771.9,01.15,0.508
2014-02-07 03:04:00,4111E-2,5C000490,-0724,1376,5661,027.8,045.3,0.114,771.9,01.15,0.508
2014-02-07 03:05:00,4107E-2,5C000490,-0724,1376,5603,027.8,045.3,0.114,771.9,01.15,0.508
2014-02-07 03:06:00,4123E-2,5C000490,-0724,1376,5628,027.8,045.3,0.114,772.0,01.15,0.508
2014-02-07 03:07:00,4078E-2,5C000490,-0724,1376,5538,027.8,045.3,0.114,772.1,01.15,0.508
2014-02-07 03:08:00,4046E-2,5C000490,-0724,1376,5532,027.8,045.3,0.115,772.1,01.15,0.508
2014-02-07 03:09:00,4070E-2,5C000490,-0724,1376,5590,027.8,045.3,0.115,772.1,01.15,0.508
2014-02-07 03:10:00,4023E-2,5C000490,-0724,1376,5548,027.8,045.3,0.115,772.2,01.15,0.508
2014-02-07 03:11:00,4086E-2,5C000490,-0724,1376,5542,027.8,045.3,0.115,772.1,01.15,0.508
2014-02-07 03:12:00,4163E-2,5C000490,-0724,1376,5528,027.8,045.3,0.115,772.1,01.15,0.508
2014-02-07 03:13:00,4119E-2,5C000490,-0724,1376,5534,027.8,045.3,0.115,772.1,01.15,0.508
2014-02-07 03:14:00,4102E-2,5C000490,-0724,1376,5517,027.8,045.3,0.115,772.2,01.15,0.508
2014-02-07 03:15:00,4120E-2,5C000490,-0724,1376,5571,027.8,045.3,0.115,772.2,01.15,0.508
2014-02-07 03:16:00,4090E-2,5C000490,-0724,1376,5591,027.8,045.3,0.115,772.2,01.15,0.508
2014-02-07 03:17:00,4126E-2,5C000490,-0724,1376,5586,027.8,045.3,0.115,772.2,01.15,0.508
2014-02-07 03:18:00,4133E-2,5C000490,-0724,1376,5546,027.7,045.3,0.115,772.2,01.15,0.508
2014-02-07 03:19:00,4113E-2,5C000490,-0724,1376,5540,027.8,045.3,0.115,772.2,01.15,0.508
2014-02-07 03:20:00,4187E-2,5C000490,-0724,1376,5574,027.7,045.3,0.115,772.2,01.15,0.508
2014-02-07 03:21:00,4123E-2,5C000490,-0724,1376,5537,027.8,045.3,0.115,772.2,01.15,0.508
2014-02-07 03:22:00,4146E-2,5C000490,-0724,1376,5533,027.8,045.3,0.115,772.2,01.15,0.508
2014-02-07 03:23:00,4155E-2,5C000490,-0724,1376,5530,027.8,045.3,0.115,772.2,01.15,0.508
2014-02-07 03:24:00,4108E-2,5C000490,-0724,1376,5541,027.8,045.3,0.115,772.2,01.15,0.508
2014-02-07 03:25:00,4165E-2,5C000490,-0724,1376,5490,027.7,045.3,0.115,772.2,01.15,0.508
2014-02-07 03:26:00,4157E-2,5C000490,-0724,1376,5622,027.7,045.3,0.115,772.2,01.15,0.508
2014-02-07 03:27:00,4127E-2,5C000490,-0724,1376,5593,027.7,045.3,0.115,772.3,01.15,0.508
2014-02-07 03:28:00,4155E-2,5C000490,-0724,1376,5559,027.7,045.3,0.115,772.3,01.15,0.508
2014-02-07 03:29:00,4083E-2,5C000490,-0724,1376,5533,027.7,045.3,0.115,772.3,01.15,0.508
2014-02-07 03:30:00,4139E-2,5C000490,-0724,1376,5529,027.7,045.3,0.115,772.4,01.15,0.508
2014-02-07 03:31:00,4160E-2,5C000490,-0724,1376,5513,027.7,045.3,0.115,772.4,01.15,0.508
2014-02-07 03:32:00,4152E-2,5C000490,-0724,1376,5567,027.7,045.3,0.115,772.4,01.15,0.508
2014-02-07 03:33:00,4164E-2,5C000490,-0724,1376,5518,027.6,045.3,0.115,772.3,01.15,0.508
2014-02-07 03:34:00,4179E-2,5C000490,-0724,1376,5481,027.7,045.3,0.115,772.3,01.15,0.508
2014-02-07 03:35:00,4169E-2,5C000490,-0724,1376,5513,027.7,045.3,0.115,772.3,01.15,0.508
2014-02-07 03:36:00,4186E-2,5C000490,-0724,1376,5462,027.7,045.3,0.115,772.3,01.15,0.508
2014-02-07 03:37:00,4079E-2,5C000490,-0724,1376,5492,027.7,045.3,0.115,772.3,01.15,0.508
2014-02-07 03:38:00,4111E-2,5C000490,-0724,1376,5435,027.7,045.3,0.115,772.3,01.15,0.508
2014-02-07 03:39:00,4154E-2,5C000490,-0724,1376,5481,027.7,045.3,0.115,772.3,01.15,0.508
2014-02-07 03:40:00,4152E-2,5C000490,-0724,1376,5454,027.7,045.3,0.115,772.4,01.15,0.508
2014-02-07 03:41:00,4142E-2,5C000490,-0724,1376,5426,027.7,045.3,0.115,772.4,01.15,0.508
2014-02-07 03:42:00,4083E-2,5C000490,-0724,1376,5468,027.7,045.3,0.115,772.4,01.15,0.508
2014-02-07 03:43:00,4121E-2,5C000490,-0724,1376,5470,027.7,045.3,0.115,772.4,01.15,0.508
2014-02-07 03:44:00,4137E-2,5C000490,-0724,1376,5465,027.7,045.3,0.115,772.4,01.15,0.508
2014-02-07 03:45:00,4164E-2,5C000490,-0724,1376,5513,027.7,045.3,0.115,772.4,01.15,0.508
2014-02-07 03:46:00,4133E-2,5C000490,-0724,1376,5416,027.7,045.3,0.115,772.4,01.15,0.508
2014-02-07 03:47:00,4152E-2,5C000490,-0724,1376,5452,027.7,045.3,0.115,772.5,01.15,0.508
2014-02-07 03:48:00,4172E-2,5C000490,-0724,1376,5475,027.6,045.3,0.115,772.5,01.15,0.508
2014-02-07 03:49:00,4120E-2,5C000490,-0724,1376,5364,027.7,045.3,0.115,772.4,01.15,0.508
2014-02-07 03:50:00,4131E-2,5C000490,-0724,1376,5444,027.7,045.3,0.115,772.5,01.15,0.508
2014-02-07 03:51:00,4081E-2,5C000490,-0724,1376,5352,027.7,045.3,0.115,772.4,01.15,0.508
2014-02-07 03:52:00,4099E-2,5C000490,-0724,1376,5384,027.7,045.3,0.115,772.4,01.15,0.508
2014-02-07 03:53:00,4167E-2,5C000490,-0724,1376,5361,027.7,045.3,0.000,772.4,01.15,0.508
2014-02-07 03:54:00,4136E-2,5C000490,-0724,1376,5399,027.7,045.3,0.115,772.5,01.15,0.508
2014-02-07 03:55:00,4162E-2,5C000490,-0724,1376,5486,027.7,045.3,0.115,772.5,01.15,0.508
2014-02-07 03:56:00,4121E-2,5C000490,-0724,1376,5317,027.7,045.3,0.115,772.5,01.15,0.508
2014-02-07 03:57:00,4213E-2,5C000490,-0724,1376,5358,027.7,045.3,0.115,772.7,01.15,0.508
2014-02-07 03:58:00,4139E-2,5C000490,-0724,1376,5418,027.7,045.3,0.115,772.7,01.15,0.508
2014-02-07 03:59:00,4094E-2,5C000490,-0724,1376,5356,027.7,045.3,0.115,772.7,01.15,0.508
2014-02-07 04:00:00,4115E-2,5C000490,-0724,1376,5441,027.7,045.3,0.115,772.7,01.15,0.508
2014-02-07 04:01:00,4124E-2,5C000490,-0724,1376,5400,027.7,045.3,0.115,772.8,01.15,0.508
2014-02-07 04:02:00,4174E-2,5C000490,-0724,1376,5456,027.7,045.3,0.115,772.7,01.15,0.508
2014-02-07 04:03:00,4157E-2,5C000490,-0724,1376,5401,027.7,045.3,0.115,772.7,01.15,0.508
2014-02-07 04:04:00,4141E-2,5C000490,-0724,1376,5436,027.7,045.3,0.115,772.7,01.15,0.508
2014-02-07 04:05:00,4152E-2,5C000490,-0724,1376,5428,027.7,045.3,0.115,772.7,01.15,0.508
2014-02-07 04:06:00,4132E-2,5C000490,-0724,1376,5403,027.7,045.3,0.115,772.7,01.15,0.508
2014-02-07 04:07:00,4146E-2,5C000490,-0724,1376,5425,027.6,045.3,0.115,772.6,01.15,0.508
2014-02-07 04:08:00,4145E-2,5C000490,-0724,1376,5409,027.7,045.3,0.115,772.6,01.15,0.508
2014-02-07 04:09:00,4105E-2,5C000490,-0724,1376,5370,027.7,045.3,0.115,772.6,01.15,0.508
2014-02-07 04:10:00,4085E-2,5C000490,-0724,1376,5430,027.7,045.3,0.115,772.6,01.15,0.508
2014-02-07 04:11:00,4152E-2,5C000490,-0724,1376,5325,027.7,045.3,0.115,772.6,01.15,0.508
2014-02-07 04:12:00,4107E-2,5C000490,-0724,1376,5407,027.7,045.3,0.115,772.7,01.15,0.508
2014-02-07 04:13:00,4096E-2,5C000490,-0724,1376,5365,027.7,045.3,0.115,772.7,01.15,0.508
2014-02-07 04:14:00,4135E-2,5C000490,-0724,1376,5403,027.7,045.3,0.115,772.8,01.15,0.508
2014-02-07 04:15:00,4114E-2,5C000490,-0724,1376,5368,027.7,045.3,0.115,772.8,01.15,0.508
2014-02-07 04:16:00,4125E-2,5C000490,-0724,1376,5382,027.6,045.3,0.115,772.8,01.15,0.508
2014-02-07 04:17:00,4125E-2,5C000490,-0724,1376,5361,027.7,045.3,0.115,772.8,01.15,0.508
2014-02-07 04:18:00,4081E-2,5C000490,-0724,1376,5327,027.6,045.3,0.115,772.9,01.15,0.508
2014-02-07 04:19:00,4136E-2,5C000490,-0724,1376,5332,027.6,045.3,0.115,773.0,01.15,0.508
2014-02-07 04:20:00,4161E-2,5C000490,-0724,1376,5319,027.6,045.3,0.115,773.0,01.15,0.508
2014-02-07 04:21:00,4124E-2,5C000490,-0724,1376,5309,027.6,045.3,0.115,773.0,01.15,0.508
2014-02-07 04:22:00,4235E-2,5C000490,-0724,1376,5281,027.7,045.3,0.115,773.0,01.15,0.508
2014-02-07 04:23:00,4195E-2,5C000490,-0724,1376,5297,027.6,045.3,0.115,773.1,01.15,0.508